Regional Weather Roundup
Issued by NWS

Home | Current Version | Previous Version | Text Only | Print | Product List | Glossary On
Versions: 1 2 3 4 5 6 7 8 9 10 11 12 13 14 15 16 17 18 19 20 21 22 23 24 25 26 27 28 29 30 31 32 33 34 35 36 37 38 39 40 41 42 43 44 45 46 47 48 49 50
067
ASUS43 KOAX 260610
RWRNE

WEATHER ROUNDUP FOR NEBRASKA
NATIONAL WEATHER SERVICE OMAHA NE
100 AM CDT THU MAY 26 2016

NOTES: SATELLITE DATA IS BEING USED TO AUGMENT CLOUD COVER ABOVE
       12000 FEET.
       "FAIR" INDICATES FEW OR NO CLOUDS BELOW 12,000 FEET WITH NO
       SIGNIFICANT WEATHER AND/OR OBSTRUCTIONS TO VISIBILITY.

  * THESE STATIONS DO NOT REPORT WEATHER SUCH AS RAIN...SNOW OR FOG.

NEZ001>004-019>022-054>056-260700-
NEBRASKA PANHANDLE

CITY           SKY/WX    TMP DP  RH WIND       PRES   REMARKS
SCOTTSBLUFF    CLOUDY    49  44  83 N7        29.95F
6HR MIN TEMP:  49; 6HR MAX TEMP:  72;

ALLIANCE       CLOUDY    50  45  83 NE3       29.93F
6HR MIN TEMP:  48; 6HR MAX TEMP:  67;

CHADRON        CLOUDY    45  42  89 W7        29.92S
6HR MIN TEMP:  45; 6HR MAX TEMP:  69;

KIMBALL        CLOUDY    48  43  81 W7        29.99R
SIDNEY         CLEAR     45  42  89 W5        29.97F
6HR MIN TEMP:  45; 6HR MAX TEMP:  63;

$$

NEZ057>060-069>072-079>082-260700-
SOUTHWEST NEBRASKA

CITY           SKY/WX    TMP DP  RH WIND       PRES   REMARKS
NORTH PLATTE   CLOUDY    55  52  89 W5        29.93S
6HR MIN TEMP:  54; 6HR MAX TEMP:  71; 6HR PCP:  0.02;

IMPERIAL       CLEAR     53  49  86 N6        29.93S
6HR MIN TEMP:  53; 6HR MAX TEMP:  60; 6HR PCP:  0.28;

LEXINGTON      PTCLDY    62  49  63 S3        29.87F
MCCOOK         CLEAR     57  49  74 NE5       29.88R
6HR MIN TEMP:  55; 6HR MAX TEMP:  78; 6HR PCP:  0.02;

OGALLALA       PTCLDY    52  48  89 CALM      29.94F
$$

NEZ005>010-023>029-035>040-094-260700-
NORTH CENTRAL NEBRASKA

CITY           SKY/WX    TMP DP  RH WIND       PRES   REMARKS
VALENTINE      CLOUDY    51  47  86 SE9       29.91S
6HR MIN TEMP:  49; 6HR MAX TEMP:  70;

AINSWORTH      CLOUDY    53  48  85 S3        29.92F
BROKEN BOW     CLOUDY    57  52  83 CALM      29.90F
6HR MIN TEMP:  57; 6HR MAX TEMP:  75; 6HR PCP:  0.06;

O`NEILL        MOCLDY    60  52  76 SW5       29.90R
ORD            MOCLDY    58  54  86 N3        29.88R
6HR MIN TEMP:  58; 6HR MAX TEMP:  79; 6HR PCP:  0.01;

THEDFORD       PTCLDY    54  46  76 NW3       29.94S
$$

NEZ041-046>049-061>064-073>077-083>087-260700-
SOUTH CENTRAL NEBRASKA

CITY           SKY/WX    TMP DP  RH WIND       PRES   REMARKS
GRAND ISLAND   CLOUDY    60  54  80 S9        29.88R
6HR MIN TEMP:  58; 6HR MAX TEMP:  75; 6HR PCP:  0.15;

AURORA         CLOUDY    62  55  80 N3        29.87S
HASTINGS       MOCLDY    62  52  69 VRB5      29.89F
6HR MIN TEMP:  59; 6HR MAX TEMP:  75; 6HR PCP:  0.08;

HEBRON         CLEAR     62  54  74 NW8       29.90F
HOLDREGE       CLOUDY    64  47  54 CALM      29.85F
KEARNEY *      MOCLDY    61  52  72 E12       29.81F
YORK           CLOUDY    61  54  77 N5        29.86F
$$

NEZ011>018-030>034-042>045-260700-
NORTHEAST NEBRASKA

CITY           SKY/WX    TMP DP  RH WIND       PRES   REMARKS
NORFOLK        CLOUDY    63  55  75 S15       29.87R
6HR MIN TEMP:  63; 6HR MAX TEMP:  82; 6HR PCP:  0.02;

ALBION         CLOUDY    61  53  76 W5        29.87F
BLAIR          CLOUDY    70  67  92 SW6       29.84S
FREMONT        MOCLDY    67  56  69 W37G55    29.92R
TEKAMAH        CLOUDY    66  63  90 S5        29.83R
6HR MIN TEMP:  66; 6HR MAX TEMP:  79;

WAYNE          TSTM      57  54  89 S13       29.88R
$$

NEZ050>053-065>068-078-088>093-260700-
SOUTHEAST NEBRASKA

CITY           SKY/WX    TMP DP  RH WIND       PRES   REMARKS
LINCOLN        CLOUDY    65  56  72 NW7       29.89R THUNDER
6HR MIN TEMP:  65; 6HR MAX TEMP:  77; 6HR PCP:  0.14;

OMAHA EPPLEY   CLOUDY    71  66  84 CALM      29.82F THUNDER
6HR MIN TEMP:  70; 6HR MAX TEMP:  78;

BEATRICE       PTCLDY    69  69  97 W6        29.87R
FALLS CITY     CLOUDY    65  62  90 E7        29.83R
6HR MIN TEMP:  65; 6HR MAX TEMP:  79; 6HR PCP:  0.04;

NEBRASKA CITY  CLOUDY    72  69  91 SE9       29.84R
PLATTSMOUTH    CLOUDY    72  69  92 W3        29.83R
$$

NEZ044-045-051>053-067-260700-
OMAHA AREA

CITY           SKY/WX    TMP DP  RH WIND       PRES   REMARKS
OMAHA EPPLEY   CLOUDY    71  66  84 CALM      29.82F THUNDER
6HR MIN TEMP:  70; 6HR MAX TEMP:  78;

BLAIR          CLOUDY    70  67  92 SW6       29.84S
FREMONT        MOCLDY    67  56  69 W37G55    29.92R
MILLARD        CLOUDY    71  68  88 CALM      29.83S
OFFUTT AFB     TSTM      69  69 100 SW2       29.82S
PLATTSMOUTH    CLOUDY    72  69  92 W3        29.83R
WAHOO          LGT RAIN  65  56  72 NW31G51   29.81F
$$




USA.gov is the U.S. government's official web portal to all federal, state and local government web resources and services.